TimeCST,TemperatureF,Dew PointF,Humidity,Sea Level PressureIn,VisibilityMPH,Wind Direction,Wind SpeedMPH,Gust SpeedMPH,PrecipitationIn,Events,Conditions,WindDirDegrees,DateUTC
12:56 AM,46.9,37.0,68,30.05,10.0,NW,5.8,-,N/A,,Clear,310,2013-02-16 06:56:00
1:56 AM,46.0,37.0,71,30.03,10.0,NNW,4.6,-,N/A,,Overcast,340,2013-02-16 07:56:00
2:56 AM,46.0,37.0,71,30.04,10.0,WNW,8.1,-,N/A,,Overcast,300,2013-02-16 08:56:00
3:56 AM,46.0,36.0,68,30.04,10.0,WNW,5.8,-,N/A,,Overcast,290,2013-02-16 09:56:00
4:56 AM,45.0,34.0,65,30.04,10.0,Variable,4.6,-,N/A,,Overcast,0,2013-02-16 10:56:00
5:56 AM,44.1,32.0,63,30.06,10.0,NW,3.5,-,N/A,,Overcast,310,2013-02-16 11:56:00
6:56 AM,43.0,30.9,62,30.07,10.0,WNW,6.9,-,N/A,,Mostly Cloudy,290,2013-02-16 12:56:00
7:56 AM,43.0,30.9,62,30.10,10.0,NW,10.4,-,N/A,,Scattered Clouds,320,2013-02-16 13:56:00
8:56 AM,45.0,28.9,53,30.12,10.0,NW,12.7,23.0,N/A,,Clear,320,2013-02-16 14:56:00
9:56 AM,46.0,26.1,46,30.13,10.0,NW,13.8,21.9,N/A,,Mostly Cloudy,320,2013-02-16 15:56:00
10:56 AM,46.9,23.0,39,30.13,10.0,WNW,11.5,26.5,N/A,,Mostly Cloudy,290,2013-02-16 16:56:00
11:56 AM,48.0,19.9,33,30.12,10.0,WNW,15.0,29.9,N/A,,Mostly Cloudy,300,2013-02-16 17:56:00
12:56 PM,50.0,18.0,28,30.09,10.0,WNW,20.7,28.8,N/A,,Scattered Clouds,300,2013-02-16 18:56:00
1:56 PM,48.0,14.0,26,30.09,10.0,West,11.5,26.5,N/A,,Partly Cloudy,280,2013-02-16 19:56:00
2:56 PM,48.0,9.0,21,30.10,10.0,WNW,15.0,27.6,N/A,,Mostly Cloudy,290,2013-02-16 20:56:00
3:56 PM,45.0,10.0,24,30.11,10.0,WNW,15.0,24.2,N/A,,Mostly Cloudy,300,2013-02-16 21:56:00
4:56 PM,45.0,10.0,24,30.12,10.0,WNW,9.2,23.0,N/A,,Partly Cloudy,290,2013-02-16 22:56:00
5:56 PM,42.1,12.9,31,30.15,10.0,NW,6.9,-,N/A,,Clear,320,2013-02-16 23:56:00
6:56 PM,39.9,16.0,38,30.17,10.0,WNW,4.6,-,N/A,,Clear,300,2013-02-17 00:56:00
7:56 PM,39.0,17.1,41,30.20,10.0,NW,5.8,-,N/A,,Clear,310,2013-02-17 01:56:00
8:56 PM,37.9,17.1,43,30.23,10.0,Variable,5.8,16.1,N/A,,Clear,0,2013-02-17 02:56:00
9:56 PM,36.0,18.0,48,30.25,10.0,NW,5.8,-,N/A,,Clear,320,2013-02-17 03:56:00
10:56 PM,34.0,19.0,54,30.24,10.0,WNW,3.5,-,N/A,,Clear,290,2013-02-17 04:56:00
11:56 PM,30.9,21.9,69,30.25,10.0,West,5.8,-,N/A,,Clear,270,2013-02-17 05:56:00